This demonstration page uses our WeatherBlox Daily Observations layout. Learn more.

Left ArrowRight Arrow

34.02893, -84.19858

Hourly Observations for March 14, 2016

Temp ( °F °C ) Dew Point ( °F °C ) Humidity (%) Winds ( mph kmh ) Pressure ( in mb ) Visibility ( mi km ) Precip ( " mm )
12:53 am 00:53 Clear 59 15 54 12.2 83 83 Calm 29.85 1011 10 16 0.00 0.00
1:53 am 01:53 Clear 57 13.9 54 12.2 90 90 Calm 29.85 1011 10 16 0.00 0.00
2:53 am 02:53 Clear 55 12.8 53 11.7 93 93 Calm 29.84 1011 10 16 0.00 0.00
3:53 am 03:53 Clear 54 12.2 53 11.7 97 97 Calm 29.84 1010 10 16 0.00 0.00
4:53 am 04:53 Clear 53 11.7 52 11.1 96 96 S 3 6 29.83 1010 10 16 0.00 0.00
5:53 am 05:53 Clear 56 13.3 54 12.2 93 93 SSE 5 7 29.82 1010 10 16 0.00 0.00
6:53 am 06:53 Clear 57 13.9 54 12.2 90 90 Calm 29.84 1010 10 16 0.00 0.00
7:40 am 07:40 Mostly Cloudy 59 15 57 14 94 94 SW 14 22 29.85 1011 10 16 0.00 0.00
7:53 am 07:53 Cloudy 59 15 57 13.9 93 93 SW 16 26 29.86 1011 10 16 0.00 0.00
8:21 am 08:21 Mostly Cloudy 59 15 56 13.3 90 90 SW 9 15 29.85 1011 10 16 0.00 0.00
8:53 am 08:53 Mostly Cloudy 60 15.6 57 13.9 90 90 SW 9 15 29.86 1011 10 16 0.00 0.00
9:04 am 09:04 Partly Cloudy 61 16 57 14 88 88 SSW 10 17 29.85 1011 10 16 0.00 0.00
9:22 am 09:22 Mostly Cloudy 63 17 57 14 83 83 SW 14 22 29.85 1011 10 16 0.00 0.00
9:53 am 09:53 Partly Cloudy 64 17.8 58 14.4 81 81 SW 15 24 29.86 1011 10 16 0.00 0.00
10:53 am 10:53 Partly Cloudy 68 20 58 14.4 70 70 SW 13 20 29.85 1011 10 16 0.00 0.00
11:09 am 11:09 Mostly Cloudy 67 19.4 57 13.9 71 71 WSW 17 28 29.85 1011 10 16 0.00 0.00
11:53 am 11:53 Mostly Cloudy 67 19.4 58 14.4 73 73 SW 16 26 29.85 1011 10 16 0.00 0.00
12:53 pm 12:53 Cloudy 70 21.1 60 15.6 71 71 SW 12 19 29.83 1010 10 16 0.00 0.00
1:53 pm 13:53 Mostly Cloudy 70 21.1 58 14.4 66 66 SW 16 26 29.82 1010 10 16 0.00 0.00
2:53 pm 14:53 Mostly Cloudy 73 22.8 57 13.9 57 57 SW 16 26 29.78 1009 10 16 0.00 0.00
3:53 pm 15:53 Mostly Cloudy 75 23.9 57 13.9 54 54 SSW 21 33 29.76 1008 10 16 0.00 0.00
4:53 pm 16:53 Mostly Cloudy 76 24.4 56 13.3 50 50 SSW 21 33 29.75 1007 10 16 0.00 0.00
5:53 pm 17:53 Mostly Cloudy 75 23.9 57 13.9 54 54 SW 17 28 29.74 1007 10 16 0.00 0.00
6:53 pm 18:53 Mostly Cloudy 72 22.2 57 13.9 59 59 SW 14 22 29.75 1008 10 16 0.00 0.00
7:53 pm 19:53 Mostly Cloudy 71 21.7 57 13.9 61 61 SW 7 11 29.76 1008 10 16 0.00 0.00
8:53 pm 20:53 Clear 69 20.6 56 13.3 63 63 WSW 7 11 29.78 1009 10 16 0.00 0.00
9:53 pm 21:53 Mostly Clear 68 20 54 12.2 61 61 W 6 9 29.80 1009 10 16 0.00 0.00
10:53 pm 22:53 Partly Cloudy 67 19.4 54 12.2 63 63 W 6 9 29.81 1010 10 16 0.00 0.00
11:53 pm 23:53 Clear 65 18.3 53 11.7 66 66 W 3 6 29.83 1010 10 16 0.00 0.00

Powered by AerisWeather